Location: Marcé
(47.5801°N, 0.3280°W)
Time: 15:49:41
(UTC+01:00)

SR - Pass Details

Date: 30 November 2021
Orbit: 582 x 872 km, 66.7° (Epoch: 22 January)

Event Time Altitude Azimuth Distance (km) Brightness Sun altitude
Rises 23:43:27 0° 157° (SSE) 3,001 - -60.9°
Reaches altitude 10° 23:47:36 10° 121° (ESE) 2,023 - -61.3°
Maximum altitude 23:48:47 11° 106° (ESE) 1,946 - -61.4°
Drops below altitude 10° 23:49:57 10° 91° (E) 1,991 - -61.5°
Sets 23:53:53 0° 55° (NE) 2,853 - -61.8°
